Wind_Speed
11 11 11 11 12 13 13 13 13 12 12 12 12 12 11 10 10 10 10 10 11 11 11 12 12 13 14 15 16 16 17 17 17 17 17 17 16 15 16 16 16 15 15 15 15 15 15 16 16 17 18 17 18 18 18 19 19 19 19 19 19 18 18 18 14 16 23 23 22 26 26 26 28 27 27 27 28 26 24 23 23 26 31 34 36
11 11 12 12 12 13 13 12 12 12 12 12 12 11 11 10 10 10 11 11 11 12 11 12 12 13 14 15 16 17 17 17 17 17 17 17 16 16 16 16 16 15 15 16 16 16 16 17 17 18 19 18 18 19 19 20 20 20 20 19 20 20 19 20 18 16 22 25 25 26 27 25 26 28 25 24 26 27 24 23 23 26 30 34 36
12 12 12 12 12 12 12 12 12 12 12 11 11 11 10 10 10 10 11 11 12 12 12 12 12 13 14 15 17 18 18 18 18 17 17 17 17 16 16 16 16 16 16 16 16 17 17 17 18 19 20 19 19 19 19 20 21 20 21 20 20 22 20 20 21 20 23 26 25 25 26 26 26 28 25 23 25 27 24 22 24 26 29 33 35
12 12 12 12 12 12 12 12 11 11 11 11 11 10 10 10 10 11 11 11 12 12 12 13 13 13 14 15 16 18 19 19 19 18 17 17 16 17 17 16 16 16 16 16 17 17 18 18 18 20 20 20 20 20 20 22 23 21 22 22 21 22 22 20 21 23 24 26 26 25 25 26 27 27 25 23 23 24 25 25 25 27 30 33 35
13 13 13 13 12 12 12 12 11 11 11 11 11 10 10 10 10 11 11 12 12 12 12 12 12 13 14 15 16 18 18 19 19 19 18 17 16 16 17 16 16 16 15 16 16 17 18 19 19 20 21 21 20 21 22 23 23 22 22 23 23 23 24 23 23 23 24 26 27 26 25 25 26 26 25 23 21 20 23 28 29 30 31 31 32
13 13 13 13 12 12 11 11 11 11 11 10 10 10 10 10 11 11 11 11 12 12 12 12 12 13 13 15 16 17 18 19 19 19 19 18 16 16 16 16 15 15 15 15 16 17 18 19 20 21 21 22 22 22 23 24 23 23 23 24 24 25 27 26 24 23 24 25 26 26 25 24 24 26 25 23 22 20 21 25 29 31 31 30 30
13 13 13 12 12 12 11 11 11 11 11 10 11 11 11 11 11 11 11 11 11 11 12 12 12 12 13 14 15 16 18 19 20 20 19 19 17 15 15 16 15 14 15 16 16 17 19 19 20 20 21 21 22 23 24 25 25 25 26 25 25 26 27 27 25 24 23 24 23 23 24 23 23 25 25 24 22 21 20 21 23 27 30 31 31
13 13 12 12 12 11 11 11 11 11 11 11 11 11 11 11 11 11 11 11 11 11 12 12 11 12 12 13 14 16 18 20 22 23 22 21 18 14 15 16 15 15 15 16 17 18 20 20 19 19 20 20 23 24 25 26 28 28 28 27 27 27 26 25 25 24 23 23 23 22 23 22 22 23 23 22 20 19 19 20 22 25 26 29 32
13 13 12 12 12 11 11 11 11 11 11 11 11 11 11 11 11 11 11 11 11 12 12 12 12 12 12 13 14 16 18 21 25 26 26 24 19 14 14 15 15 15 16 16 17 19 20 20 19 20 20 21 24 25 25 27 30 30 29 29 29 28 26 25 24 24 23 23 23 23 22 21 21 22 22 22 21 20 22 23 24 25 25 28 34
13 13 13 12 12 11 11 11 11 11 11 12 12 11 11 11 11 12 12 12 12 12 12 12 12 12 12 13 14 16 18 21 25 27 27 24 19 14 14 16 15 15 17 18 18 20 21 20 20 21 22 24 26 27 28 32 32 31 31 30 30 29 27 26 25 24 24 24 23 23 22 21 21 22 23 24 24 24 25 24 23 23 23 22 24
13 13 13 13 12 12 11 11 12 12 12 12 12 12 11 11 11 11 12 12 12 12 12 12 12 11 12 13 14 15 18 22 25 28 25 22 19 15 14 16 16 16 18 19 19 21 21 22 22 22 23 26 28 29 31 34 34 34 33 32 30 29 27 27 27 26 25 24 24 24 23 23 25 24 24 25 25 23 23 25 24 22 19 15 11
14 14 14 13 13 12 12 12 12 12 12 12 12 12 11 11 12 11 11 12 12 12 12 12 12 12 11 13 14 15 19 23 27 29 25 21 21 17 14 16 16 17 19 20 20 21 22 23 23 23 25 28 29 31 33 34 34 34 34 32 30 28 26 26 28 29 28 27 27 26 25 26 27 26 24 24 25 25 25 27 27 24 21 18 13
15 15 14 14 13 13 12 13 13 13 12 12 12 12 12 12 12 11 11 11 12 13 13 13 13 12 11 12 13 16 20 24 27 29 24 20 21 19 16 16 16 17 20 20 19 21 22 23 24 25 27 28 29 32 33 34 34 33 32 30 29 27 27 27 28 28 29 29 28 28 28 28 29 29 27 27 28 28 28 27 26 24 22 21 21
16 16 15 14 14 13 13 13 13 13 13 12 12 12 12 12 11 11 11 11 12 13 13 13 13 13 12 12 13 16 21 24 26 28 25 20 20 19 16 16 17 18 19 20 20 20 21 23 25 26 28 28 30 33 35 34 33 31 30 30 29 29 29 28 26 26 27 27 27 28 29 30 32 34 32 30 30 30 28 27 26 25 25 25 25
17 16 15 14 14 13 13 13 13 13 12 12 12 12 12 12 11 11 11 11 11 12 12 12 13 13 12 12 12 15 20 23 24 27 26 21 19 18 16 16 18 18 19 20 20 20 21 23 25 27 28 28 31 36 37 35 32 31 30 30 30 30 30 28 27 27 28 29 29 30 32 33 35 37 37 34 33 33 32 31 31 30 31 32 30
17 16 15 14 14 13 13 13 13 12 12 12 12 12 11 11 11 11 11 11 11 12 12 12 12 13 13 12 12 14 18 22 23 26 27 22 19 18 17 16 18 19 19 20 20 20 21 23 26 28 27 28 32 37 38 35 31 30 30 30 31 31 30 29 29 30 31 32 33 34 35 35 36 37 38 36 36 36 34 32 32 29 27 25 24
17 16 15 14 14 13 13 13 12 12 12 11 11 11 11 11 10 11 11 11 11 11 11 11 12 12 13 13 12 12 15 20 21 24 26 24 20 18 17 17 18 19 20 20 19 20 21 22 26 27 26 28 33 37 38 36 31 29 30 31 32 31 30 31 32 32 33 33 34 33 33 33 32 31 31 30 30 29 25 26 28 26 20 15 14
17 16 15 15 14 13 12 12 12 12 11 11 11 10 10 10 10 10 11 11 11 10 10 10 11 11 12 13 13 11 13 17 20 22 24 25 23 19 18 18 18 18 19 20 19 20 21 21 25 27 27 30 34 36 38 36 31 30 32 32 32 32 33 33 33 34 35 34 32 30 30 29 27 26 27 26 24 21 18 22 26 23 18 14 12
17 16 15 14 14 13 12 12 11 11 11 11 10 10 9 9 9 9 9 10 10 10 10 10 10 10 10 11 12 12 12 15 19 21 22 24 24 20 18 19 19 18 19 20 19 20 21 21 24 28 29 31 33 35 38 37 32 31 33 32 31 33 35 33 32 34 35 33 31 30 29 27 24 24 24 23 21 18 16 19 22 21 19 18 17
17 16 16 14 14 13 12 11 11 11 11 10 9 9 9 9 9 9 9 9 9 9 9 9 10 10 9 9 10 12 13 14 17 19 21 22 23 21 19 19 19 18 18 20 19 20 21 21 23 28 30 32 33 33 35 38 35 31 33 34 34 35 35 32 31 32 32 31 31 31 29 26 25 24 23 22 21 19 17 16 17 19 20 20 19
17 16 15 15 14 12 11 11 11 10 10 10 9 9 9 8 8 8 9 9 9 8 8 8 8 8 9 9 9 10 12 14 16 17 19 20 22 22 19 18 19 17 17 20 19 19 21 21 22 27 31 31 32 31 33 37 35 31 34 37 36 36 35 32 31 31 30 29 30 31 30 27 26 25 23 23 22 21 19 17 15 16 18 19 18
17 16 15 15 13 12 11 11 10 9 9 9 9 9 8 8 7 7 7 8 8 8 7 7 7 7 7 8 9 9 9 12 15 17 17 18 21 22 19 19 20 17 16 19 19 19 21 21 22 27 31 32 31 28 30 35 34 33 37 40 39 36 34 32 32 33 31 30 31 34 34 31 29 29 28 26 24 23 21 18 15 14 14 16 17
17 16 15 14 13 12 11 10 9 8 8 8 8 7 7 7 6 6 5 6 6 7 7 7 7 8 8 8 9 9 9 10 14 17 19 19 20 21 21 20 20 17 16 18 19 19 20 21 24 28 30 32 31 27 27 33 34 34 39 41 40 36 32 32 34 34 32 34 36 36 36 34 33 33 32 29 28 27 23 19 16 14 13 11 14
16 15 15 14 13 12 11 10 9 8 8 7 7 6 5 5 5 5 5 5 6 6 7 7 7 8 9 9 9 10 10 10 12 16 20 19 19 20 21 20 20 18 16 17 18 18 20 23 26 27 27 29 30 26 26 31 33 34 37 39 38 34 31 31 33 32 33 36 37 35 36 36 35 35 33 31 30 28 24 22 18 14 11 7 4
16 15 14 13 13 11 10 9 8 8 7 6 5 5 4 3 4 4 4 5 6 6 7 7 8 8 9 9 9 10 11 12 13 15 18 18 17 18 19 19 20 18 16 16 18 18 19 22 25 25 25 27 28 26 26 30 32 32 34 36 36 35 33 34 33 32 34 36 35 35 37 38 35 34 33 29 27 27 26 24 22 16 11 8 5
16 15 14 13 12 11 10 9 8 7 6 5 5 4 3 3 3 3 4 4 5 6 6 7 7 8 8 9 9 9 10 12 14 15 17 17 17 18 18 19 20 18 16 16 18 19 19 22 23 23 24 26 27 26 26 28 30 32 32 33 35 36 39 39 35 33 35 35 34 36 38 38 35 35 33 29 25 26 27 24 22 20 16 11 9
15 14 13 12 11 10 10 9 8 7 6 5 4 4 3 3 2 2 3 4 4 5 6 6 7 8 8 8 9 9 9 12 14 15 17 17 18 18 18 19 20 19 17 17 18 19 19 21 22 22 23 25 26 25 25 26 29 31 32 33 32 34 40 43 39 34 33 34 35 36 36 37 37 36 34 30 26 27 27 23 21 22 20 16 15
15 14 13 12 11 10 9 9 8 7 6 5 4 4 3 2 2 3 4 4 4 4 5 6 7 7 7 8 9 9 9 11 13 14 16 17 18 19 19 20 19 18 17 17 18 19 20 20 21 22 23 25 26 26 26 27 28 29 31 32 31 32 38 43 42 38 36 35 35 36 36 37 37 36 35 30 27 27 27 24 22 23 22 19 18
14 14 13 12 11 10 9 9 8 7 6 6 4 3 3 2 2 3 3 3 4 4 4 5 6 6 6 7 8 9 9 10 11 13 14 15 16 18 19 20 19 16 17 18 18 18 19 20 21 23 24 25 27 27 28 28 28 28 30 31 32 32 33 35 37 37 37 36 36 36 36 36 35 36 35 32 29 28 29 27 24 24 22 20 20
14 13 12 11 11 10 9 9 8 7 6 7 6 5 4 4 3 3 2 2 3 3 3 3 4 5 5 5 6 7 8 9 10 12 12 13 15 16 17 19 18 16 16 18 18 17 19 20 21 23 24 25 26 27 28 28 27 28 29 31 32 32 30 30 33 34 36 37 36 35 35 35 34 34 35 33 30 28 29 29 27 25 23 22 21
14 13 13 12 11 11 9 8 8 7 7 7 7 6 7 6 5 3 2 1 1 1 1 1 2 3 4 4 5 7 9 10 11 11 12 13 14 15 16 17 18 17 17 18 17 17 19 21 21 22 24 25 25 26 27 27 27 27 28 29 31 31 30 30 32 32 32 34 35 34 34 36 35 33 33 33 31 28 28 29 29 26 25 24 23
13 13 13 12 12 11 10 9 9 8 7 7 6 6 6 7 7 6 4 2 1 1 0 1 1 1 2 4 5 5 8 10 11 11 12 13 14 15 15 15 17 19 18 17 17 18 20 21 21 22 23 24 25 26 26 26 26 26 27 28 30 31 30 30 32 31 30 31 33 32 33 35 35 33 31 32 31 28 28 30 30 28 26 25 25
13 13 12 13 13 12 10 9 9 9 8 7 7 6 5 5 6 7 6 5 4 3 2 1 1 2 3 4 4 5 7 9 10 11 12 13 14 15 14 13 14 16 17 17 17 18 19 20 21 22 23 23 24 26 26 25 26 26 26 26 29 30 29 30 31 30 29 30 32 32 31 33 35 34 31 30 30 29 28 30 30 28 27 26 25
13 12 12 13 14 13 11 10 10 9 8 8 7 6 5 3 3 3 5 6 6 7 6 4 1 2 3 4 5 6 7 8 9 11 12 13 14 14 13 13 13 13 15 17 18 18 19 20 20 21 22 23 24 25 25 24 25 26 25 26 27 28 28 28 30 30 29 29 30 31 31 32 34 33 31 30 30 29 29 31 31 29 28 28 27
13 13 13 14 14 12 11 10 9 9 8 8 7 6 5 4 4 3 3 3 3 4 5 6 5 2 4 5 5 5 7 8 9 10 11 12 14 14 12 12 13 13 14 16 17 17 17 18 19 20 21 21 22 23 23 22 24 25 24 24 25 26 26 27 29 29 28 28 29 31 31 30 31 31 30 30 29 28 28 29 30 30 29 28 27
13 13 14 15 14 12 11 10 9 9 8 8 7 6 6 5 5 4 3 3 3 4 4 4 5 5 6 5 4 5 6 7 9 9 9 11 14 13 12 12 12 13 14 14 15 16 16 16 17 19 19 19 21 22 21 20 21 22 22 22 23 25 26 27 28 28 27 26 28 29 29 29 29 29 30 30 30 30 29 28 28 29 29 27 26
13 12 14 16 15 12 11 11 10 9 8 7 7 7 7 6 6 5 4 4 4 4 5 5 5 6 7 7 4 4 7 9 9 8 7 9 11 11 10 11 12 12 13 13 14 15 16 15 16 17 18 18 19 19 19 19 19 19 20 21 22 23 25 26 27 27 26 26 26 27 27 28 28 28 28 29 31 31 30 29 29 29 29 28 27
13 12 13 15 15 14 12 11 10 10 9 9 9 8 7 7 7 6 6 5 4 5 6 6 5 6 6 5 3 4 7 10 9 8 7 8 9 9 9 10 11 11 12 13 13 14 15 15 15 16 16 17 18 18 18 19 19 18 19 20 21 22 24 25 26 27 26 26 26 26 26 27 28 28 27 27 29 30 31 31 31 29 28 28 27
13 12 13 15 15 14 12 12 11 11 11 11 11 9 9 8 8 7 7 6 6 6 6 6 6 6 6 4 4 5 7 8 8 6 6 7 8 8 9 9 10 10 11 12 12 13 14 14 15 15 15 16 17 17 18 18 18 18 19 19 20 22 23 24 26 26 25 25 25 26 26 26 26 27 27 27 28 29 29 30 31 30 27 26 26
13 13 14 17 17 15 13 12 11 11 12 12 12 11 11 10 10 9 8 7 7 6 6 6 6 6 4 4 5 7 8 8 7 6 6 7 7 8 8 8 9 9 10 11 11 12 13 14 14 14 14 15 16 16 17 17 17 17 18 18 19 21 22 23 24 25 24 24 24 25 25 25 24 25 27 27 27 28 28 28 29 30 29 27 26
13 12 14 17 18 16 14 13 12 11 12 12 11 12 12 11 11 10 9 8 8 7 7 7 7 5 4 5 7 8 8 8 8 7 6 7 7 7 8 8 8 8 9 10 10 11 12 13 13 14 14 14 14 15 16 16 17 17 17 17 18 19 20 21 23 24 23 23 23 24 24 24 23 24 25 26 26 27 27 27 27 27 28 28 27
14 13 12 15 17 17 15 14 13 12 12 12 12 12 12 11 11 11 10 9 9 9 8 8 8 6 4 5 8 8 8 8 8 7 7 7 6 6 7 7 7 7 8 8 9 9 10 11 12 13 13 13 13 14 14 15 16 16 16 17 17 18 19 20 21 23 23 22 22 23 23 23 22 22 23 24 24 24 25 26 26 26 26 26 26
15 14 12 13 15 16 16 15 14 13 13 13 12 12 12 12 12 12 11 11 11 10 10 9 9 7 6 6 7 8 8 8 7 7 6 6 6 6 6 6 6 7 7 7 7 8 9 9 10 11 12 12 12 12 12 13 14 15 15 16 16 17 18 18 19 21 22 21 21 21 22 22 22 21 21 22 22 22 22 24 24 24 24 24 24
14 14 14 13 14 15 16 15 14 14 13 13 12 12 12 12 12 12 12 12 11 11 11 10 10 8 7 6 7 8 8 7 6 6 6 6 6 6 6 6 6 6 7 7 7 7 8 8 9 9 10 11 11 11 11 11 13 13 14 15 15 16 17 17 18 19 21 21 20 19 20 21 21 20 20 20 21 21 21 21 22 22 23 23 22
15 14 15 15 15 15 15 15 15 14 13 13 13 13 13 14 14 13 13 12 12 11 11 11 10 10 9 8 8 8 7 7 6 6 7 7 7 6 6 6 6 6 6 7 6 6 7 7 7 8 9 10 10 10 10 10 11 12 12 13 14 15 16 16 16 16 18 19 19 18 18 19 19 20 20 19 19 20 19 19 20 20 20 20 20
16 15 15 16 16 16 16 15 15 14 14 14 14 14 14 14 14 14 14 13 12 12 12 11 11 11 11 10 9 9 8 8 8 7 7 7 7 7 6 6 6 6 7 7 6 6 7 7 7 7 8 8 9 9 9 9 10 10 11 12 12 13 14 15 15 15 16 16 17 17 18 17 17 19 20 19 18 18 18 18 18 18 18 18 18
15 16 16 16 16 17 17 16 15 15 15 15 14 14 14 13 13 14 14 14 13 13 12 12 12 12 11 11 11 10 10 9 9 9 8 8 8 8 7 6 6 7 7 7 7 7 7 6 6 7 7 7 7 8 8 8 8 9 10 11 12 13 14 14 14 13 14 14 14 15 16 16 15 17 18 18 17 17 17 16 16 16 16 16 15
16 16 16 17 17 17 17 17 16 16 15 15 15 15 15 14 14 14 14 14 14 14 14 14 13 13 12 12 12 11 11 10 10 10 10 9 9 9 8 8 7 8 8 8 8 8 7 7 7 7 7 6 6 6 6 7 7 7 8 10 12 14 15 15 14 13 13 13 12 13 14 15 14 15 16 17 17 17 16 15 15 14 14 14 14
17 17 16 17 18 18 18 17 17 16 16 16 16 16 16 16 15 15 15 15 15 15 15 15 14 14 13 13 12 12 12 11 12 12 11 11 10 10 9 9 8 8 9 9 9 8 8 8 8 7 7 7 6 5 5 5 5 6 6 8 11 14 15 15 15 14 13 11 11 11 12 13 13 13 14 14 15 15 15 15 14 13 12 13 13
18 17 16 16 17 17 18 17 17 16 16 16 16 17 17 17 17 16 16 15 16 16 16 15 15 14 14 14 13 13 13 13 12 12 12 12 11 11 11 10 10 10 10 10 10 10 10 9 9 9 8 8 7 6 6 6 4 4 5 7 9 11 12 13 15 15 14 12 11 11 11 11 12 12 12 12 13 13 14 14 13 12 11 12 12
20 18 18 17 17 17 17 18 17 17 17 16 16 16 17 17 17 17 16 16 16 16 16 16 16 16 15 15 15 14 14 14 14 13 13 13 13 12 12 12 12 11 11 11 10 11 11 10 10 10 9 9 8 8 7 6 6 6 6 7 8 9 10 11 12 13 14 12 11 10 11 10 10 11 12 12 11 11 12 12 12 11 10 10 10
Wind_Direction
95 93 90 90 90 90 89 88 86 86 85 84 84 83 81 80 77 75 72 67 64 62 60 58 55 53 51 47 44 41 38 36 33 31 29 26 23 18 13 11 9 6 2 1 0 357 354 352 352 352 350 346 342 340 339 338 336 332 330 329 325 323 324 317 309 303 305 309 310 309 309 309 305 295 288 288 281 268 255 247 243 239 238 237 235
99 99 99 96 92 91 88 86 84 82 81 80 80 80 78 76 74 73 70 64 62 59 57 56 54 52 50 46 43 39 36 34 31 29 26 23 20 16 11 8 6 4 1 0 0 359 357 354 354 353 350 347 343 341 340 338 336 331 329 330 325 323 324 317 310 304 304 308 310 310 310 308 304 299 290 284 283 274 258 248 244 239 239 238 233
104 103 102 99 94 91 86 83 83 81 80 79 78 78 76 73 71 70 68 64 60 57 55 54 52 51 49 45 42 37 34 31 27 24 22 18 16 13 9 7 4 1 0 360 359 359 358 356 356 354 350 347 344 342 341 338 336 332 329 329 324 320 321 317 312 307 303 304 306 307 308 306 303 300 293 284 281 278 266 255 250 245 242 238 233
105 104 103 101 95 90 86 84 83 81 80 78 77 76 74 72 69 67 66 63 58 56 54 53 51 50 48 44 40 36 32 28 23 20 16 12 9 7 5 4 2 1 0 359 358 358 358 357 356 354 350 347 344 342 341 339 336 333 329 328 325 320 318 315 310 307 303 302 302 302 304 303 300 298 295 287 281 277 270 263 257 250 244 238 233
106 107 105 102 96 90 87 85 82 80 80 77 75 74 73 71 69 67 65 62 59 55 53 53 52 50 48 44 40 35 30 25 20 16 11 7 4 2 2 0 0 2 1 0 0 359 358 357 355 355 352 348 345 343 341 339 336 333 330 328 325 321 317 314 309 305 302 301 301 300 301 301 299 298 296 289 283 278 273 268 263 254 243 234 229
110 109 107 103 97 92 88 86 83 81 80 77 75 74 73 72 70 68 65 63 60 57 55 55 54 52 51 47 42 37 31 25 19 14 8 4 360 359 0 0 360 2 3 3 3 0 359 357 355 355 353 349 347 344 341 340 336 333 329 326 324 321 317 314 310 305 302 300 300 300 300 300 300 299 297 291 286 282 278 274 267 259 247 236 228
113 111 109 104 98 94 90 87 85 82 79 78 75 73 72 72 72 69 67 65 63 59 57 57 57 56 53 49 44 38 31 26 19 13 7 2 358 357 360 2 2 4 5 5 5 3 0 358 355 354 352 349 346 343 340 339 336 331 328 324 322 321 317 314 311 308 304 301 301 301 300 300 299 296 295 296 290 282 277 274 269 262 250 237 229
116 112 109 104 99 96 93 89 86 83 80 78 75 74 73 71 72 72 69 67 63 59 58 59 60 59 56 52 46 38 31 26 21 16 8 360 356 357 1 4 5 7 7 5 5 4 0 357 355 352 350 347 344 340 338 336 333 329 326 323 321 318 315 313 311 309 307 304 303 303 301 301 300 297 298 299 294 285 279 273 268 264 253 238 231
117 114 109 105 101 99 94 90 86 83 81 78 75 75 74 73 73 72 69 67 63 59 58 60 61 61 59 54 46 38 30 26 23 18 10 3 358 359 3 6 8 9 7 5 5 3 359 357 354 350 348 346 343 340 336 333 330 326 322 320 318 316 313 310 308 308 308 306 305 305 303 301 301 301 302 300 297 296 295 283 270 265 261 248 235
118 116 112 107 105 100 95 91 87 84 82 79 78 76 75 74 73 70 69 66 63 60 59 61 62 60 59 54 46 37 27 24 22 16 13 13 8 3 6 9 10 9 7 5 4 2 359 356 353 350 349 346 344 342 336 332 329 325 321 319 315 312 308 306 306 306 305 305 304 305 303 300 299 300 299 297 296 298 298 291 276 266 264 258 240
121 118 115 112 108 102 97 93 89 86 83 80 79 77 75 75 73 71 70 66 64 62 60 61 62 59 59 54 45 36 26 22 19 15 18 26 22 11 8 10 10 10 8 6 3 0 358 356 353 350 349 347 345 342 337 332 329 326 324 322 318 312 307 304 305 305 302 301 300 301 301 298 297 297 295 295 296 295 295 296 290 274 258 254 248
124 121 119 116 111 104 100 97 92 87 84 80 79 78 77 77 75 74 72 68 66 63 61 61 60 57 57 53 46 36 26 21 19 17 22 31 30 22 14 12 11 10 8 6 3 1 357 355 353 351 349 347 345 343 339 334 331 328 326 325 322 318 312 307 304 301 298 296 294 294 294 294 295 295 293 295 297 296 296 297 296 285 263 244 242
128 125 123 120 113 107 103 99 93 89 85 82 80 80 80 79 77 76 75 72 69 64 61 60 57 54 53 50 46 37 26 21 19 19 23 29 32 30 20 14 13 11 8 6 2 1 358 354 353 351 348 347 347 345 342 336 333 330 328 327 323 319 316 311 306 302 298 295 292 290 289 290 292 291 291 293 294 293 291 289 289 288 276 253 241
130 128 125 121 116 111 106 101 96 91 87 84 83 81 80 79 77 77 75 72 68 64 60 58 54 52 49 47 46 37 26 21 20 20 22 27 32 30 20 14 13 10 8 6 2 1 359 356 353 350 348 348 348 348 345 339 335 332 329 328 325 322 320 317 313 310 306 301 297 293 289 288 288 287 288 289 287 285 283 281 281 284 282 276 264
130 129 126 123 119 114 109 104 99 96 92 88 85 82 80 78 76 75 73 70 67 63 60 57 54 51 46 44 46 39 27 22 22 21 21 26 31 26 15 12 13 9 5 5 3 2 1 358 355 352 350 349 350 351 349 343 336 334 332 329 328 325 323 322 319 314 310 306 301 296 291 288 287 287 287 287 284 280 276 274 276 278 279 284 282
131 130 127 125 122 118 113 108 103 101 98 93 87 83 80 78 75 75 73 70 68 64 61 58 54 50 46 42 43 41 29 23 24 24 22 25 27 20 13 11 11 8 5 4 4 3 2 360 357 355 353 351 352 355 354 348 341 338 336 333 331 328 326 325 322 317 314 311 307 302 298 294 293 291 291 291 289 285 278 270 270 274 272 274 276
132 131 129 127 125 121 116 111 106 104 101 96 90 85 81 79 77 74 72 70 67 65 63 61 56 52 48 43 39 40 31 25 25 25 23 24 23 15 11 12 9 7 7 5 4 4 3 2 1 359 356 354 356 358 358 353 346 343 341 336 334 332 330 329 327 325 322 319 314 311 306 303 301 299 298 297 296 293 283 265 260 265 263 258 260
135 133 131 129 127 123 118 113 109 105 102 97 93 88 83 80 77 73 71 69 67 66 66 64 61 56 51 44 39 38 33 27 25 25 22 23 23 17 12 11 9 8 8 6 5 4 2 4 6 3 358 357 359 1 1 357 351 347 346 340 335 335 335 333 330 329 328 325 323 320 316 314 312 308 305 303 300 299 287 265 259 260 256 249 252
137 135 133 131 128 124 120 116 111 106 103 100 95 91 86 81 78 74 72 70 68 68 66 64 61 56 51 47 40 38 35 27 25 25 23 22 23 20 14 11 9 7 7 5 4 4 2 3 5 4 3 3 3 2 2 360 355 351 349 345 339 337 336 333 330 330 330 330 330 328 324 323 322 317 313 312 308 304 293 278 268 260 253 250 250
138 135 133 131 128 126 123 120 115 109 106 103 98 94 88 83 79 75 71 70 68 68 67 64 62 57 50 47 43 39 36 28 23 25 25 23 23 21 16 11 7 4 6 5 2 2 3 2 1 3 5 5 3 1 1 0 358 354 352 349 342 338 338 336 334 334 334 333 335 334 330 327 326 324 322 321 319 312 303 293 279 263 255 252 248
139 137 135 133 130 129 127 125 120 113 109 105 101 96 89 84 81 76 72 70 67 67 66 62 61 57 49 45 42 38 33 26 21 22 23 23 23 21 17 11 3 357 359 4 3 1 1 360 357 360 2 1 -0 360 359 1 1 358 355 352 347 344 345 344 342 341 341 340 340 339 337 334 333 331 329 328 328 324 315 307 294 276 264 255 249
142 141 138 135 134 132 131 130 126 120 115 110 103 98 91 84 80 77 75 71 65 63 62 56 55 53 46 42 39 31 22 16 15 17 21 22 22 20 16 12 8 359 356 3 3 359 359 358 353 355 358 357 355 357 0 2 1 360 358 356 355 354 353 350 349 348 348 348 345 343 342 340 338 336 335 334 335 334 327 317 307 298 280 256 247
146 143 140 139 138 137 137 136 131 127 123 115 106 100 93 86 81 75 72 70 66 62 57 53 49 45 41 38 34 29 21 9 2 6 11 12 13 12 9 9 11 4 354 359 1 357 356 355 350 351 355 355 354 357 1 1 0 0 -0 360 0 0 357 355 354 352 350 351 349 345 343 343 341 340 338 337 337 338 338 335 327 318 310 278 248
148 146 144 144 144 143 143 141 136 132 129 121 111 104 99 93 83 74 66 61 59 57 52 47 43 39 36 34 29 25 23 14 1 359 3 3 2 0 358 359 4 0 353 354 355 351 350 350 349 350 354 355 355 357 1 2 2 2 2 3 4 3 0 357 355 352 351 351 349 344 343 344 344 342 338 337 338 341 346 351 348 339 340 339 267
152 150 150 150 150 150 147 144 140 137 134 130 121 112 108 101 84 73 68 58 53 51 46 41 38 34 29 27 24 21 19 16 9 2 0 359 357 354 352 351 353 354 351 347 346 346 348 350 350 351 354 356 357 357 360 3 5 5 4 5 7 6 3 0 357 353 352 351 348 346 346 346 347 345 343 342 344 349 353 356 359 3 10 23 37
156 155 155 153 154 154 151 149 146 143 143 140 131 122 112 101 87 71 67 61 51 47 42 36 33 31 26 21 18 17 16 14 10 5 2 359 356 354 352 349 349 351 350 344 343 346 349 351 351 352 354 357 358 356 358 2 5 5 5 5 6 5 3 2 358 354 352 351 349 348 348 349 349 349 351 352 354 357 358 358 2 8 11 18 34
162 162 159 157 159 160 156 155 154 153 157 155 142 136 126 107 92 68 57 54 48 45 42 35 28 24 22 18 13 12 17 16 11 7 3 0 357 356 354 352 350 350 351 348 346 346 349 351 355 355 355 358 359 357 357 360 2 4 5 5 5 4 4 4 2 358 354 352 351 349 350 352 353 354 356 359 1 2 2 1 5 11 12 18 29
168 168 164 162 165 165 161 164 168 165 166 169 161 148 140 126 97 75 54 36 31 34 32 32 29 18 14 15 10 7 15 18 12 7 4 2 0 358 356 354 351 349 352 351 344 343 349 354 356 358 357 359 0 359 358 358 359 1 3 5 4 3 2 3 3 1 358 356 354 353 353 354 355 355 357 1 5 6 6 7 10 13 15 23 31
174 172 170 168 170 170 168 172 179 176 168 171 170 151 143 148 120 94 70 42 45 46 35 32 27 13 7 14 13 8 11 10 4 4 6 5 4 2 359 358 354 353 359 357 345 344 354 358 358 359 359 360 1 360 358 358 358 358 0 3 4 2 360 358 358 357 359 359 357 355 354 353 354 356 360 3 6 9 11 14 15 15 17 24 31
178 176 176 176 174 175 177 177 180 183 177 172 168 156 155 163 148 124 116 91 71 63 56 51 34 15 9 11 6 2 2 358 354 357 2 1 1 1 3 5 5 3 6 3 356 355 0 0 360 0 360 360 1 359 357 357 357 356 357 0 2 3 2 359 356 355 358 0 360 358 356 354 354 359 3 4 5 9 14 17 18 19 20 22 27
181 180 183 182 178 180 183 180 180 184 183 179 177 171 167 165 155 150 161 160 135 94 60 53 34 23 15 0 346 340 343 348 350 352 352 351 353 353 355 2 8 10 7 1 357 2 5 2 1 2 0 0 1 359 357 358 358 356 356 359 2 3 2 359 356 353 354 357 358 358 357 357 358 2 6 7 6 8 14 19 22 24 24 24 24
182 182 183 181 180 184 186 180 181 185 183 183 187 187 185 177 167 164 169 171 170 184 223 263 308 346 346 346 343 330 330 340 346 347 346 345 346 347 347 352 1 8 8 3 360 4 7 4 1 2 1 0 1 360 358 359 359 358 357 358 1 3 1 358 356 354 353 355 356 357 358 359 1 3 8 11 10 9 13 18 23 25 26 25 25
184 183 181 177 179 186 188 181 182 186 183 182 187 193 198 195 179 171 173 179 191 202 205 220 290 303 297 315 331 327 326 334 339 342 345 344 342 344 346 349 355 2 6 6 4 6 8 5 2 2 2 1 1 1 0 0 0 0 359 359 1 2 359 357 357 356 355 357 359 359 360 3 5 6 9 14 15 12 14 18 22 24 26 27 27
184 182 179 176 176 183 186 183 183 186 184 184 189 192 195 198 198 194 192 190 195 201 201 195 202 312 303 295 303 315 323 330 333 337 341 343 343 344 345 348 354 359 3 5 4 4 7 6 3 2 2 1 1 1 1 1 1 2 1 360 1 0 357 356 357 356 355 358 0 0 3 7 9 9 11 16 18 16 17 20 23 24 26 28 31
184 180 178 179 181 183 185 184 184 186 185 186 190 192 189 188 196 217 234 236 232 232 219 200 193 244 304 301 296 307 316 322 328 330 332 339 346 345 341 346 355 1 5 6 2 1 4 4 2 2 2 2 1 1 0 360 2 3 2 359 359 359 357 356 356 355 355 358 360 1 4 10 13 12 13 17 19 19 20 23 25 26 27 30 34
186 181 180 186 191 190 187 187 187 188 189 191 194 195 197 202 208 219 231 241 259 279 277 246 225 245 270 276 283 307 314 315 321 324 326 340 348 343 339 347 355 356 360 2 359 357 0 2 0 0 1 0 0 0 360 358 0 2 0 357 357 358 358 357 357 355 355 358 -0 1 5 11 14 16 17 19 21 22 23 26 30 32 32 33 36
190 186 185 191 197 198 194 193 194 193 194 199 204 204 206 212 220 232 241 248 262 278 285 286 276 262 249 235 240 309 321 314 308 306 313 333 341 335 335 347 353 352 355 358 356 354 357 359 358 358 358 358 358 358 358 358 359 360 358 356 357 358 357 357 358 357 357 359 1 3 7 12 15 18 20 21 23 23 24 27 32 35 35 36 39
195 194 191 193 197 200 200 198 198 199 203 210 216 218 219 222 226 234 244 250 260 271 275 279 285 281 265 240 235 289 305 300 290 282 290 315 326 327 333 345 350 350 353 354 354 353 354 355 355 355 356 357 357 356 358 359 358 358 358 358 358 358 358 359 360 360 360 2 3 4 7 11 16 20 22 23 24 25 27 29 33 35 36 38 40
198 199 196 196 198 203 204 202 202 205 211 219 223 225 226 230 234 238 245 249 252 262 272 276 279 285 289 288 284 289 297 299 298 298 308 320 324 328 335 341 346 350 351 351 352 354 354 354 355 355 355 357 357 357 358 359 358 357 358 358 358 360 1 1 1 1 1 2 4 5 6 10 15 20 23 26 27 28 30 33 35 37 39 41 42
198 198 199 200 202 205 208 210 210 212 215 221 227 228 228 231 236 240 244 249 252 260 270 277 280 283 287 298 304 303 303 304 303 306 314 319 321 326 332 336 340 344 347 348 350 353 353 354 354 354 355 356 356 356 358 359 358 356 357 358 359 1 2 3 2 1 1 2 4 5 6 9 14 18 22 26 29 30 32 35 37 40 43 45 46
200 199 200 203 205 207 211 216 219 221 223 225 229 231 230 231 236 241 246 249 252 259 263 266 274 279 278 290 301 301 295 293 296 302 307 310 313 321 327 331 334 338 341 344 347 349 351 352 352 353 353 353 354 354 356 358 358 357 356 358 359 360 2 4 3 1 1 2 4 6 6 9 14 17 19 24 29 32 35 37 39 41 44 48 51
203 200 197 200 204 208 214 218 221 225 228 229 232 233 234 234 234 239 244 248 252 258 260 261 266 264 254 271 292 296 288 284 287 294 298 301 307 315 318 321 327 333 335 338 341 344 346 347 349 351 351 351 351 353 354 355 357 357 357 358 359 359 0 2 2 1 2 2 5 7 7 9 14 17 18 21 27 32 34 37 40 43 46 48 52
206 204 202 200 203 210 217 220 223 225 227 229 231 232 235 237 238 239 241 244 247 253 254 256 260 256 240 249 277 284 279 273 274 282 291 296 302 306 309 314 322 328 329 330 334 339 341 343 345 348 350 350 351 351 352 354 356 356 357 358 358 357 359 0 0 1 2 2 3 7 10 11 13 18 20 22 25 29 31 35 39 43 46 49 51
206 209 210 207 207 211 216 221 225 228 228 230 232 233 234 238 240 241 241 241 243 246 247 249 254 252 242 240 252 260 263 266 273 282 289 290 291 295 299 305 314 317 318 321 326 332 334 336 339 343 347 349 349 349 350 352 354 355 357 357 357 357 357 358 358 359 360 0 2 7 12 14 15 17 19 22 24 26 29 33 37 41 46 49 49
211 213 215 214 214 215 217 220 226 230 229 230 231 232 233 236 239 241 242 243 243 244 244 244 246 247 247 248 249 252 260 268 273 277 278 279 283 288 292 297 303 305 307 310 314 319 323 327 331 336 341 346 349 349 350 352 355 357 359 359 358 358 356 353 353 355 358 1 4 7 11 15 18 18 18 20 24 26 27 31 35 40 46 50 49
215 217 219 219 219 220 220 222 225 228 230 230 230 231 232 233 235 237 239 241 243 244 244 242 241 240 244 249 251 254 259 264 267 269 271 274 278 282 284 289 294 296 297 299 301 303 305 310 316 325 332 339 343 345 348 354 357 1 4 4 2 359 356 354 353 354 357 2 5 6 8 13 18 19 18 20 23 26 27 30 33 36 43 50 53
220 221 223 223 222 222 224 226 228 230 231 232 232 233 234 235 235 236 237 238 240 243 245 245 244 242 243 246 249 251 253 257 261 265 268 269 270 273 274 277 283 287 288 289 291 292 293 295 301 308 314 323 332 338 344 352 358 2 7 9 7 3 3 3 0 355 356 0 3 5 9 12 15 17 18 18 20 24 26 29 32 34 38 44 52
223 222 223 224 224 224 225 226 228 231 233 234 234 234 236 238 239 239 238 237 236 238 241 243 245 246 245 247 249 251 253 255 258 261 265 267 268 267 266 265 269 277 282 282 281 281 282 283 287 292 296 301 311 322 331 342 353 1 6 9 10 12 14 14 9 3 2 2 1 3 10 12 12 14 15 15 17 21 24 25 30 34 36 39 43
223 223 224 223 223 225 226 227 228 230 232 234 235 234 235 237 239 240 241 240 237 237 239 242 244 246 247 248 249 251 252 255 256 259 262 264 264 265 265 262 260 264 272 276 275 273 272 271 271 274 280 284 289 298 308 318 335 350 355 359 7 15 20 21 18 15 14 8 360 0 8 10 9 11 14 13 14 19 20 21 26 34 36 37 38
222 223 225 224 223 224 226 227 229 231 232 233 235 234 233 235 237 238 240 241 239 239 240 242 244 247 249 250 252 253 254 256 257 258 260 262 262 263 263 262 258 257 262 268 270 269 268 266 263 262 265 269 271 275 285 292 301 319 332 341 354 7 16 21 22 23 25 22 8 359 2 6 6 8 11 11 12 15 16 16 20 29 36 39 37
223 224 226 227 226 226 226 226 229 233 233 234 235 235 235 236 237 238 239 239 240 241 243 244 246 248 250 251 253 254 255 258 261 262 263 264 264 264 262 259 257 255 257 261 264 264 264 263 260 257 258 260 260 262 269 272 270 278 300 323 340 351 0 10 16 19 26 31 23 7 3 7 6 6 10 11 11 11 11 12 14 21 31 37 38
Height
863 864 864 865 865 865 865 865 866 866 866 866 866 866 867 867 867 866 866 865 865 864 864 863 862 862 861 860 859 858 857 856 855 853 852 851 850 849 847 846 844 842 841 839 838 836 835 833 831 830 829 827 825 823 821 819 817 815 813 810 807 804 801 798 793 784 776 774 772 766 763 761 757 755 752 749 747 747 746 745 745 745 745 746 747
864 865 865 866 866 866 866 866 867 867 867 867 867 867 868 867 867 867 866 866 865 865 864 863 863 862 861 861 860 859 858 857 856 854 853 852 851 850 848 846 845 843 841 840 838 837 835 833 832 830 829 827 825 823 821 819 817 815 812 810 806 804 801 798 793 786 777 772 770 765 761 759 755 752 750 747 744 744 743 742 742 741 741 741 742
865 866 866 867 867 867 867 867 868 868 868 868 868 868 868 868 868 867 867 866 866 865 865 864 864 863 862 862 860 859 858 857 857 855 854 853 851 850 848 846 845 843 841 840 838 837 835 833 832 830 829 827 825 824 821 819 817 814 811 809 806 803 801 798 793 788 781 773 769 765 760 757 753 749 747 745 742 741 740 739 738 738 738 738 739
866 867 867 868 868 868 868 869 869 869 869 869 869 869 869 869 869 868 867 867 866 866 865 865 864 863 863 862 861 860 859 858 858 856 855 854 852 850 849 847 845 844 842 840 839 837 835 833 832 831 829 828 826 824 822 819 817 814 811 808 806 802 799 797 793 788 782 775 769 766 761 756 751 747 744 742 740 738 737 736 736 735 734 734 736
866 867 868 869 869 869 870 870 870 870 870 870 870 870 870 869 869 869 868 868 867 867 866 866 865 865 864 863 863 862 861 860 859 857 856 854 852 851 849 848 846 844 843 841 839 838 836 834 832 831 830 828 826 824 822 820 817 814 812 808 805 802 798 795 792 787 782 776 769 765 761 756 751 746 743 739 737 735 734 733 732 731 730 731 732
867 868 869 869 870 871 871 871 871 871 871 871 871 871 870 870 870 869 869 869 868 868 868 867 867 866 865 865 864 864 863 862 860 859 857 855 853 852 850 848 847 845 843 842 840 838 837 835 833 832 830 828 827 825 822 820 817 814 812 808 805 802 797 793 790 785 781 775 769 764 760 756 750 745 741 738 735 733 731 730 729 728 727 727 728
868 869 870 870 871 872 872 872 872 872 872 872 872 871 871 871 870 870 870 870 870 870 869 868 868 867 867 866 866 866 865 864 862 860 858 856 854 852 850 849 847 845 844 842 841 839 837 836 834 833 832 830 828 826 823 820 817 814 811 808 804 801 796 792 788 784 779 773 768 763 758 754 750 745 740 737 734 731 729 728 726 724 724 724 725
868 870 871 871 872 873 873 873 873 873 873 872 872 872 872 872 871 871 871 871 871 870 870 870 869 869 868 868 868 867 866 865 863 861 859 856 854 853 851 849 847 846 844 842 841 840 838 837 835 834 833 831 829 826 824 821 817 814 810 807 803 799 795 791 786 782 777 772 767 762 757 753 749 744 739 736 732 729 727 726 723 721 721 721 721
869 871 871 872 873 874 874 874 874 874 874 873 873 873 873 873 872 872 872 872 872 871 871 871 870 870 870 869 869 868 867 866 864 862 859 856 854 853 851 849 847 846 844 843 841 840 839 837 836 834 833 831 829 826 823 821 817 813 809 805 801 797 794 790 785 781 776 771 766 761 757 752 748 744 739 736 732 728 726 724 721 719 719 718 716
869 871 872 873 874 875 875 875 875 875 875 874 874 874 874 874 873 873 873 873 873 872 872 872 871 871 871 870 870 869 869 867 865 863 860 856 854 852 851 849 848 846 844 843 842 840 839 838 836 834 832 830 827 824 821 818 815 811 808 804 800 796 792 788 784 780 775 770 765 761 756 751 747 744 740 736 733 729 725 723 719 716 717 715 712
869 871 872 873 874 875 876 876 876 876 876 876 875 875 875 875 875 875 874 874 874 873 873 873 872 872 872 871 871 870 870 868 865 862 859 856 853 852 851 849 848 846 845 843 842 841 839 838 836 833 831 828 825 822 819 815 811 807 804 800 797 794 790 786 782 779 775 769 765 761 756 750 746 744 740 735 732 729 725 722 718 715 714 712 711
870 871 872 874 875 876 876 877 877 877 877 877 876 876 876 876 876 876 875 875 875 875 874 874 873 873 872 872 872 871 870 868 865 862 859 856 853 851 851 850 848 847 846 844 843 842 840 838 836 833 831 828 825 821 817 812 807 803 799 796 793 791 789 786 781 777 773 768 763 759 755 750 745 741 739 735 731 728 724 721 718 714 711 709 708
870 871 873 874 875 876 877 877 878 878 877 878 877 877 878 877 877 877 876 876 876 875 875 874 874 874 873 873 872 871 870 867 865 862 859 857 854 852 851 851 849 848 847 845 844 843 841 839 836 834 831 828 824 821 816 811 805 801 797 793 790 787 785 782 779 775 771 766 761 757 753 749 743 738 737 735 732 727 723 719 717 713 710 706 704
870 872 873 875 876 877 878 878 878 878 878 879 879 879 879 878 878 878 878 877 877 876 876 875 875 874 874 873 873 872 870 868 865 863 860 857 855 853 852 852 850 849 848 846 845 843 842 840 837 834 831 828 825 821 816 811 805 800 796 792 788 784 780 777 774 771 768 764 759 754 750 747 742 736 734 733 730 726 721 718 714 712 709 705 703
871 872 873 875 876 877 878 878 879 879 879 880 880 879 879 879 879 879 878 878 877 877 877 876 876 875 874 874 873 872 871 869 866 864 861 858 855 854 853 852 851 850 848 846 845 843 842 840 837 834 831 828 825 821 816 810 805 800 795 791 787 782 778 775 772 768 765 761 756 751 747 743 739 733 729 728 726 722 718 715 712 710 707 704 702
871 872 874 875 877 878 879 879 879 880 880 880 880 880 880 880 880 880 879 879 878 878 877 877 877 876 875 874 874 873 872 870 868 865 862 859 856 855 854 853 851 850 848 846 845 843 842 840 838 835 832 828 825 820 815 810 804 800 795 790 786 781 776 773 769 765 761 756 752 747 742 738 734 729 724 723 720 716 713 711 708 706 705 702 699
871 873 874 876 877 878 879 879 880 880 881 881 881 881 881 881 880 880 880 879 879 879 878 878 878 877 876 875 875 874 874 871 869 866 863 860 858 856 856 854 852 850 848 847 845 844 842 841 838 835 832 828 824 819 814 810 805 800 795 790 785 780 774 769 765 760 757 752 746 742 737 733 729 724 720 718 714 711 709 705 702 701 701 698 693
872 873 875 876 877 879 879 880 881 881 881 881 881 882 882 881 881 881 880 880 880 880 879 879 878 878 877 877 876 875 874 873 870 867 865 862 860 858 857 855 853 851 849 847 846 844 842 840 838 836 832 828 823 818 814 810 805 801 796 791 785 780 774 767 761 756 752 747 742 737 733 728 725 720 716 713 710 708 705 700 697 697 697 693 689
872 874 875 877 878 879 880 881 881 882 882 882 882 882 882 882 882 881 881 881 880 880 880 880 879 879 878 878 877 876 875 873 871 869 867 865 862 860 858 857 854 852 850 848 846 844 842 840 838 836 832 828 823 818 815 811 806 802 798 792 786 780 774 768 762 756 750 745 739 734 729 725 722 718 713 710 706 704 701 697 694 693 692 688 686
872 874 875 877 878 879 880 881 882 882 882 883 883 883 883 882 882 882 882 882 881 881 881 880 880 880 879 878 877 876 875 874 872 870 868 866 864 862 860 859 856 853 851 849 847 844 842 840 838 835 831 827 823 819 815 812 807 803 799 794 788 782 775 769 764 758 751 745 739 733 728 724 720 715 711 707 703 700 697 694 691 690 688 685 682
872 874 875 877 878 880 881 882 882 883 883 883 883 883 883 883 883 883 882 882 882 882 881 881 881 880 880 879 878 877 875 874 873 871 869 868 866 863 862 861 858 855 852 849 847 845 842 840 838 835 831 827 823 819 815 812 808 804 800 794 789 783 776 770 764 757 751 745 739 733 728 723 718 714 709 705 701 697 694 691 688 687 685 682 679
873 874 875 877 879 880 881 882 882 883 883 884 884 884 884 884 883 883 883 883 882 882 882 881 881 880 880 879 878 877 876 874 874 872 870 868 867 865 863 862 859 856 853 850 847 845 843 841 839 835 831 827 823 819 816 812 809 804 800 794 788 781 775 770 763 757 750 745 739 733 728 722 717 712 708 703 699 696 692 689 686 683 681 679 677
873 874 876 877 879 880 881 882 883 883 883 884 884 884 884 884 884 884 883 883 883 882 882 881 881 880 879 879 878 877 876 875 874 872 871 869 867 865 864 862 859 857 854 851 848 846 844 842 839 835 830 826 822 819 816 813 809 804 799 793 787 781 775 769 763 757 750 745 739 733 728 723 718 712 707 703 699 694 690 686 683 680 678 675 674
873 874 876 877 879 880 881 882 883 883 883 884 884 884 884 884 884 884 884 883 883 882 882 881 880 880 879 879 878 878 877 876 874 873 871 869 867 865 863 861 859 857 854 851 849 847 844 842 839 834 830 827 823 819 816 813 809 804 800 794 788 782 776 770 764 758 752 746 740 735 729 724 719 714 709 704 699 695 690 686 682 679 676 674 672
873 874 876 877 879 880 881 882 882 883 883 884 884 884 884 884 884 884 883 883 883 882 882 881 880 880 879 879 878 878 877 876 875 873 871 869 867 865 863 861 859 856 854 852 849 846 844 841 838 834 830 827 823 819 816 812 808 804 800 795 789 784 778 772 766 760 754 748 742 737 731 726 721 717 711 705 701 696 691 686 682 679 676 674 673
873 874 875 876 878 879 880 881 882 882 883 883 883 884 884 884 884 884 883 883 883 882 882 881 881 880 880 879 879 878 877 877 875 874 872 869 867 865 863 860 858 855 853 851 848 846 843 840 837 834 831 827 824 820 816 812 808 804 800 796 791 786 780 775 769 763 757 751 746 740 734 728 723 718 712 706 702 698 693 689 685 682 679 677 674
872 873 875 876 877 878 879 880 881 882 883 883 883 884 884 884 884 883 883 883 883 882 882 882 881 881 880 880 879 878 877 877 876 874 872 870 868 865 863 860 857 855 853 851 848 845 842 840 837 834 831 828 824 821 817 813 809 805 801 797 793 789 784 778 773 767 761 756 750 744 738 732 726 719 713 709 705 701 696 692 689 686 682 679 676
871 873 874 875 877 878 879 880 881 881 882 882 883 883 883 884 884 884 884 884 883 883 883 882 882 882 881 880 880 878 878 877 877 875 873 871 869 866 863 861 858 856 854 851 848 845 842 840 837 834 831 828 824 821 817 813 810 806 802 799 795 791 786 780 775 769 764 759 753 747 740 734 728 722 717 712 708 704 700 696 693 689 686 683 680
871 872 873 874 876 877 878 879 880 880 881 882 882 882 883 883 883 884 885 884 884 884 883 883 883 883 882 881 881 879 879 878 877 876 874 872 870 868 865 862 859 857 855 851 848 846 843 840 837 835 831 828 825 822 818 814 811 808 804 800 796 793 788 782 776 771 766 761 756 750 744 738 732 727 721 715 712 708 704 700 697 694 691 689 686
870 871 872 873 875 876 877 878 879 879 880 881 881 882 883 883 884 884 884 884 884 884 884 884 884 883 882 882 881 880 880 879 877 876 874 872 870 868 866 864 861 858 855 852 848 846 844 841 838 836 832 829 827 824 820 816 813 810 805 801 798 794 791 786 780 774 769 765 759 754 749 743 737 732 726 721 717 713 709 706 703 700 698 695 692
868 869 871 872 874 875 876 877 878 878 879 879 880 881 882 883 883 884 884 884 884 884 884 884 883 883 882 882 881 880 879 878 877 875 873 872 870 868 866 864 861 858 855 852 849 847 844 842 839 837 834 831 829 826 822 818 815 812 808 803 799 795 792 788 783 778 773 768 763 759 753 747 741 737 732 728 723 719 715 712 709 706 704 702 698
867 868 869 871 873 874 875 876 877 878 878 879 879 879 880 881 882 883 883 883 883 883 883 883 883 882 882 881 881 880 879 878 876 875 873 871 870 868 866 864 861 859 855 852 850 847 845 843 840 837 835 832 830 827 824 820 817 814 810 806 801 798 794 790 786 781 776 772 767 763 757 752 747 742 739 735 730 725 721 718 715 712 710 707 704
865 867 868 870 872 873 874 875 876 877 877 878 878 878 878 878 879 880 881 882 882 882 882 882 882 881 881 880 880 879 878 877 876 874 873 871 869 867 865 863 861 858 855 853 851 848 845 843 841 838 836 834 831 828 825 822 819 816 812 808 804 800 797 793 789 784 779 775 771 766 761 757 752 747 743 740 736 731 727 724 721 718 715 712 710
864 866 867 869 871 872 873 874 875 875 876 877 877 877 878 878 878 878 879 879 879 880 880 880 880 880 880 879 878 878 877 876 875 874 872 870 869 867 864 861 860 858 856 854 851 848 845 844 842 839 837 835 832 829 826 824 821 817 814 811 807 803 800 796 791 787 782 778 774 770 765 761 757 752 748 744 741 737 733 729 726 723 721 719 717
863 865 867 868 869 871 871 872 873 874 875 875 876 876 877 878 878 878 878 878 878 878 877 877 878 878 878 878 877 876 876 875 874 873 871 870 868 866 863 861 860 858 856 854 852 849 846 845 843 840 838 836 833 830 828 826 823 819 816 813 809 806 803 799 794 790 786 781 777 773 769 765 762 758 754 750 746 742 739 736 734 731 728 726 724
862 864 866 868 869 869 870 871 872 873 874 874 875 876 876 877 877 877 877 877 877 876 876 876 876 875 875 875 875 875 874 874 873 872 870 869 867 865 863 861 860 858 856 854 853 850 848 846 844 841 839 837 835 832 830 827 825 822 819 816 812 809 806 802 798 794 790 785 782 777 773 770 766 763 759 755 751 748 745 743 741 738 736 734 731
861 862 864 866 868 868 869 870 871 872 873 874 874 875 875 876 876 876 876 876 876 876 875 875 874 874 873 873 873 873 873 872 871 870 869 868 866 865 863 862 860 858 857 855 854 852 849 847 845 843 841 839 837 834 832 829 827 824 822 819 815 812 809 805 802 797 793 789 786 782 778 774 771 767 764 761 757 754 751 748 746 744 743 740 738
860 861 862 864 866 867 868 869 870 871 873 873 873 873 874 874 875 875 875 875 875 875 874 873 873 873 872 871 871 871 871 870 869 868 867 867 865 864 863 862 860 859 857 856 854 852 850 848 846 844 842 840 838 836 833 831 828 826 824 821 818 815 812 808 804 800 796 793 789 785 782 778 775 772 769 766 763 760 756 754 752 750 748 746 744
859 860 862 863 865 866 867 868 869 870 871 872 872 872 873 873 873 873 873 873 873 873 873 872 871 871 870 870 870 870 869 868 867 867 867 866 865 864 863 861 860 859 857 856 855 853 851 849 847 845 844 842 840 837 835 833 830 828 826 823 820 817 814 810 807 803 800 796 793 790 786 783 780 777 773 771 768 766 762 760 758 756 755 754 752
857 859 861 862 864 865 866 866 867 868 869 870 870 870 871 871 872 871 871 871 871 871 871 870 870 869 869 869 870 870 869 868 867 866 866 865 864 863 862 861 860 859 857 856 855 853 852 850 848 846 845 843 841 839 837 834 832 830 827 825 822 820 817 814 811 807 804 801 797 794 791 787 784 782 779 776 773 771 768 766 764 762 761 760 759
856 857 859 861 862 864 864 865 866 866 867 868 868 868 868 869 870 870 869 869 869 869 869 869 868 868 868 868 869 869 869 867 866 865 864 864 863 862 861 860 859 858 857 856 855 854 852 851 849 847 846 844 842 840 838 836 834 832 829 827 825 822 819 817 814 811 807 804 801 798 795 792 789 786 784 781 779 776 774 772 770 768 766 765 765
854 855 857 859 861 862 863 863 864 865 865 866 866 866 866 867 867 867 868 868 868 868 867 867 867 866 866 867 867 868 867 866 865 864 863 862 862 861 860 859 858 857 857 856 855 854 853 851 850 848 846 845 843 841 839 837 835 833 831 829 827 824 822 819 816 814 810 808 805 802 799 796 793 791 789 786 783 781 779 777 775 774 772 771 770
852 853 855 857 858 860 861 861 862 862 863 863 864 864 864 865 865 865 865 866 866 866 866 865 865 864 864 865 865 866 865 864 863 862 861 861 860 860 859 858 857 857 856 855 854 853 852 851 850 849 847 845 844 842 840 838 836 834 833 830 828 826 824 821 819 816 813 811 808 805 803 800 797 794 792 790 788 786 784 782 780 779 777 776 776
850 852 853 854 856 857 858 859 860 860 860 861 862 862 863 863 863 863 863 863 863 863 863 863 863 863 862 862 863 863 862 861 861 860 860 859 859 858 858 857 856 856 855 854 854 853 852 851 850 849 847 846 844 842 841 839 837 836 834 832 830 828 826 823 821 819 816 813 811 808 806 804 801 798 796 794 792 790 789 787 785 784 782 782 781
849 850 851 852 853 855 856 857 857 858 858 859 859 860 860 861 860 860 860 860 860 860 861 860 861 861 861 860 860 860 860 859 859 859 858 858 857 857 856 856 855 855 854 854 853 852 851 850 849 848 847 846 844 843 841 840 838 837 835 833 831 829 827 825 823 821 819 816 814 811 809 807 805 802 800 798 796 794 793 792 790 788 787 786 786
847 848 849 850 851 852 853 854 855 855 856 856 856 856 857 857 857 858 858 858 858 858 858 858 858 858 858 858 858 858 858 857 857 857 856 856 856 855 855 854 854 854 853 852 852 851 850 850 849 848 847 846 844 843 841 840 839 837 836 834 832 831 829 827 824 823 821 818 816 814 812 810 808 806 804 801 800 798 796 795 794 793 791 790 789
845 846 847 847 848 849 850 851 852 852 853 853 853 853 854 854 854 854 855 855 856 856 856 855 855 855 855 855 855 855 855 855 855 854 854 854 854 853 853 853 852 852 852 851 850 850 849 848 848 847 846 845 844 843 841 840 839 838 837 835 833 831 829 827 825 824 822 820 818 817 815 813 811 809 807 805 803 801 800 798 797 796 795 794 793
842 843 844 845 846 847 847 848 849 850 850 850 851 851 851 851 851 852 852 852 853 853 853 853 853 852 852 852 852 852 852 852 852 852 852 851 851 851 851 851 850 850 850 849 849 848 848 847 846 846 845 844 843 842 841 840 839 838 837 836 834 832 829 827 826 825 823 821 820 819 817 815 814 812 810 808 806 804 803 801 800 798 798 797 796
840 841 841 842 843 843 844 845 846 846 847 847 848 848 848 849 849 849 849 849 849 849 850 850 849 849 849 849 849 849 849 849 849 849 849 849 849 848 848 848 848 848 848 847 847 846 846 845 845 844 843 843 842 841 840 840 839 838 837 836 834 832 830 828 827 825 824 822 821 820 818 817 815 814 812 811 809 807 806 804 802 801 800 799 798
838 838 839 839 840 840 841 842 842 843 843 844 844 844 845 845 845 846 846 846 846 846 846 846 846 846 846 846 846 846 846 846 846 846 846 846 846 846 846 846 846 846 845 845 845 844 844 843 843 842 841 841 841 840 839 839 838 837 836 835 834 832 831 829 828 826 824 823 822 821 820 818 817 815 814 813 811 810 808 807 805 803 802 801 801
835 835 836 837 837 838 838 839 839 840 840 840 841 841 841 841 842 842 842 842 842 843 843 843 843 843 843 843 843 843 843 843 843 843 843 843 843 843 843 843 843 843 843 842 842 842 841 841 840 840 840 839 839 838 838 837 836 835 835 834 833 832 831 829 828 827 825 824 823 822 821 819 818 817 815 814 813 811 810 809 807 806 804 803 803